Regional Weather Roundup
Issued by NWS

Home | Current Version | Previous Version | Text Only | Print | Product List | Glossary Off
Versions: 1 2 3 4 5 6 7 8 9 10 11 12 13 14 15 16 17 18 19 20 21 22 23 24 25 26 27 28 29 30 31 32 33 34 35 36 37 38 39 40 41 42 43 44 45 46 47 48 49 50

000
ASUS43 KMKX 161600
RWRWI

WISCONSIN REGIONAL WEATHER ROUNDUP
NATIONAL WEATHER SERVICE MILWAUKEE/SULLIVAN WI
1100 AM CDT TUE SEP 16 2014

NOTE: "FAIR" INDICATES FEW OR NO CLOUDS BELOW 12,000 FEET WITH NO
SIGNIFICANT WEATHER AND/OR OBSTRUCTIONS TO VISIBILITY.

WIZ001-002-006>008-014>016-023>028-161700-
NORTHWEST WISCONSIN

CITY           SKY/WX    TMP DP  RH WIND       PRES   REMARKS
SUPERIOR ARPT  SUNNY     59  43  56 W16       30.07F
ASHLAND        SUNNY     60  41  49 SW14G22   30.07F
HAYWARD        SUNNY     58  39  49 SW8G16    30.12F
SIREN          SUNNY     58  40  51 W10       30.13F
RICE LAKE      SUNNY     57  40  53 SW8       30.16F
LADYSMITH      SUNNY     57  42  57 W9        30.16F
EAU CLAIRE     NOT AVBL
MENOMONIE      SUNNY     58  44  59 SW6       30.17F
NEW RICHMOND   SUNNY     58  41  51 W10       30.16F
OSCEOLA        SUNNY     59  45  59 SW7       30.18F
$$

WIZ003>005-009-010-017-018-161700-
NORTH CENTRAL WISCONSIN

CITY           SKY/WX    TMP DP  RH WIND       PRES   REMARKS
WOODRUFF       SUNNY     57  39  51 W13G18    30.10F
RHINELANDER    SUNNY     57  38  48 W16G22    30.12F
EAGLE RIVER    SUNNY     56  36  47 W13G18    30.10F
LAND O LAKES   SUNNY     57  37  47 W9G16     30.09F
PHILLIPS       SUNNY     56  40  56 W6        30.12F
TOMAHAWK       SUNNY     56  38  49 SW6G17    30.14F
MEDFORD        SUNNY     55  42  63 W10       30.16S
MERRILL        PTSUNNY   56  42  58 W10       30.14F
$$

WIZ029-030-035-036-043>047-161700-
CENTRAL WISCONSIN

CITY           SKY/WX    TMP DP  RH WIND       PRES   REMARKS
WAUSAU         SUNNY     58  40  51 W10       30.14F
MOSINEE        SUNNY     57  45  62 W9        30.17S
MARSHFIELD     SUNNY     59  42  53 W10       30.16F
STEVENS POINT  SUNNY     55  40  57 W6        30.17F
WAUPACA        SUNNY     59  42  52 SW9       30.18S
WAUTOMA        NOT AVBL
WISC RAPIDS    SUNNY     58  42  55 W9        30.19F
CAMP DOUGLAS   NOT AVBL
$$

WIZ011>013-019>022-031-037>040-048>050-161700-
NORTHEAST WISCONSIN

CITY           SKY/WX    TMP DP  RH WIND       PRES   REMARKS
ANTIGO         SUNNY     55  40  56 W13G18    30.15F
STURGEON BAY   SUNNY     57  39  51 W8        30.14F
GREEN BAY      SUNNY     59  42  53 W10       30.16F
MANITOWOC      NOT AVBL
APPLETON       SUNNY     57  39  51 W9        30.17F
CLINTONVILLE   SUNNY     55  37  50 W10       30.15F
OSHKOSH        SUNNY     57  41  55 W8        30.17F
$$

WIZ032>034-041-042-053>061-161700-
SOUTHWEST WISCONSIN

CITY           SKY/WX    TMP DP  RH WIND       PRES   REMARKS
LA CROSSE      SUNNY     58  46  64 S7        30.20F
SPARTA         SUNNY     54  44  68 SW5       30.20F
VIROQUA        FAIR      57  42  57 W7        30.20F
BOSCOBEL       SUNNY     58  47  66 S5        30.22F
PRAIRIE DU CHI SUNNY     51  51  97 CALM      30.22F
PLATTEVILLE    FAIR      57  46  68 CALM      30.23F
$$

WIZ056-057-062-063-064-067-068-161700-
SOUTH CENTRAL WISCONSIN

CITY           SKY/WX    TMP DP  RH WIND       PRES   REMARKS
BARABOO/DELLS  SUNNY     57  39  50 W8        30.20F
LONE ROCK      NOT AVBL
WATERTOWN      SUNNY     56  44  64 CALM      30.20F
MADISON        MOSUNNY   59  40  49 VRB7      30.20F
MIDDLETON      FAIR      58  41  52 W5        30.22S
MONROE         SUNNY     57  39  51 W7        30.22S
JANESVILLE     NOT AVBL
$$

WIZ051-052-058>065-066-070>072-161700-
SOUTHEAST WISCONSIN

CITY           SKY/WX    TMP DP  RH WIND       PRES   REMARKS
MILWAUKEE      SUNNY     59  38  45 VRB6      30.21S
WAUKESHA       SUNNY     55  39  54 W5        30.21F
MILWAUKEE/TIMM SUNNY     57  37  47 NW5       30.21F
RACINE         SUNNY     59  40  49 NW7       30.22S
BURLINGTON     SUNNY     56  38  51 N3        30.21S
KENOSHA        SUNNY     60  42  51 VRB5      30.21F
FOND DU LAC    SUNNY     58  40  51 NW8       30.18F
SHEBOYGAN      SUNNY     58  40  51 NW8       30.18F
WEST BEND      SUNNY     55  36  47 NW6       30.19F
JUNEAU         SUNNY     55  42  63 W7        30.21F
$$

LSZ147-162-161700-
LAKE SUPERIOR

STATION/POSITION TIME  TEMP    WIND        PRES    WAVE
                       AIR SEA DIR/SP/G            HT/PER
                 (UTC) (F)     (DEG/KT/KT) (MB)    (FT/S)
W MID LAKE BUOY  1450   50 47  240/ 17/ 19 1016.2F   5/ 5
DEVILS ISLAND    1500   52     240/ 22/ 26 1017.2F
PORT WING        1540   59     250/ 10/ 15 1017.9F
SAXON HARBOR     1500   57     220/  7/ 18 1018.3
$$

LMZ867-665-643>646-161700-
LAKE MICHIGAN

STATION/POSITION TIME  TEMP    WIND        PRES    WAVE
                       AIR SEA DIR/SP/G            HT/PER
                 (UTC) (F)     (DEG/KT/KT) (MB)    (FT/S)
N MID LAKE BUOY  1450   53 59  250/ 10/ 12 1020.3F   1/ 3
NORTHPORT PIER   1500   56     300/  5/ 10 1020.0F
KEWAUNEE LAKESHO 1500   54     280/  6/  9 1020.5S
SHEBOYGAN LAKESH 1500   55 48  290/  9/ 12 1022.8R
PORT WASHINGTON  1500   59     280/  5/  8 1023.0S
ATWATER BUOY     1500   56     290/  6/ 10 1023.7
MILWAUKEE LAKESH 1500   56     310/  6/  8   N/A
S MID LAKE BUOY  1350   58 64  330/ 10/ 12 1022.5R   2/ 4
KENOSHA   LAKESH 1400   53     300/  3/  5 1022.7S
$$

TC  - TEMPERATURE IN CELSIUS
VSB - VISIBILITY IN STATUTE MILES
WCI - WIND CHILL INDEX
HX  - HEAT INDEX



USA.gov is the U.S. government's official web portal to all federal, state and local government web resources and services.